Vertical_Velocity
2 -1 -3 -2 -1 0 1 1 -1 -2 -1 -2 -1 -1 -1 0 -1 0 -1 -4 -3 -4 -2 -3 -2 -4 -4 -3 -4 -2 -1 -2 13 -5 -5 -8 -4 1
-0 1 2 1 -1 -5 -5 -4 -2 0 -1 0 1 1 0 -1 -2 -2 -4 -2 -3 -2 -2 -3 -5 -2 2 0 -3 -4 9 -2 -6 -3 -5 -0 -2 -3
0 -1 -0 1 2 2 2 0 -1 -1 -0 -1 -0 -1 -1 -3 -2 -2 -2 -3 -0 -2 -2 -0 1 -1 -2 -4 -2 -3 7 -3 -5 -2 -4 -7 -6 -7
-1 0 -0 -1 0 1 1 -0 -1 -1 3 3 1 0 -0 -2 -6 -1 -0 -1 1 -1 -3 1 0 -3 -2 1 -1 -5 0 -0 -5 -7 -4 6 0 -6
1 1 3 2 1 0 -1 -0 -0 1 -0 1 -0 -2 -1 0 3 -4 -0 2 -3 -1 0 0 -2 -1 1 -1 -4 -5 -6 -2 1 -7 -0 -4 -2 -4
4 3 1 1 2 1 1 0 -1 2 -1 -0 -1 -0 3 1 -3 -8 0 -0 -3 -0 -1 0 -1 -1 -3 -4 -4 -4 2 -2 -0 -4 -4 -5 -5 -0
3 2 2 4 4 4 3 1 2 -0 -1 -0 -0 0 0 -2 -1 -7 -2 -4 -5 -7 1 -3 -6 -6 -2 -1 -5 -5 6 -3 -3 -5 -1 0 -4 -3
2 2 2 2 1 -1 1 5 2 3 -5 -2 -1 0 -4 -0 -4 -4 -4 -4 -12 -8 -3 -0 0 -3 0 -1 -5 -1 0 3 -1 -5 -3 -2 -1 -4
5 4 5 2 3 2 -3 -4 -0 -10 4 -3 -2 -1 1 0 -7 -1 -1 -3 -1 -2 -5 2 1 0 -3 -5 -2 -4 -1 -1 -2 -1 -1 -1 -1 -1
9 2 -4 4 3 -4 1 2 -9 -5 -4 3 5 1 1 -1 -7 -2 -4 -5 6 -0 1 -5 1 2 -1 -2 2 3 3 -1 -3 -3 -2 -3 -1 -2
7 2 5 9 -5 3 -9 -5 -2 -2 -3 -0 0 3 2 1 -2 -4 1 -2 -8 -3 0 -0 -10 -6 1 -1 4 3 -2 -3 -5 -1 0 -2 -2 -2
4 -1 -9 -11 2 5 -3 -6 -1 3 -1 -2 1 -4 -1 -2 -5 -1 -2 -2 -2 -8 -2 -5 -2 -10 -12 1 -0 1 -1 -2 -0 -4 4 -2 -2 -2
3 -3 6 3 1 2 -2 -8 2 -2 1 4 -1 -0 1 -7 -1 2 -1 -1 -1 -0 3 -1 -1 -4 1 -11 2 3 -2 -2 -1 -1 3 -0 -3 2
3 4 2 1 3 6 -4 1 2 -1 0 -1 2 -2 -3 -3 1 2 1 2 -2 -3 1 -1 -3 0 -3 -4 -4 2 -0 -2 -1 -2 1 3 -0 -2
1 13 2 4 -2 0 0 0 2 -1 3 2 -3 -5 -1 -3 0 1 0 -0 -0 1 0 -0 -5 2 1 1 -2 5 -12 -3 -3 -0 -5 4 -3 -1
6 6 2 4 1 6 0 -2 -1 -0 -3 -3 -2 2 -2 -2 -0 -0 0 -2 4 4 1 2 -3 -1 -0 2 -1 2 -2 -3 -0 -4 -6 1 2 -2
1 4 2 -0 -2 -1 0 5 -1 -1 0 -1 -0 -6 -4 1 -3 -1 -2 -2 -7 -3 1 -0 -2 2 -2 2 -1 -0 -4 1 -1 2 -5 -4 -3 -2
2 -1 -5 1 -2 1 3 -6 1 -1 -1 2 -4 -4 2 1 -0 -1 -1 -1 2 1 -1 -7 -4 3 5 6 -3 2 2 -1 -0 4 0 -1 -2 -3
0 -2 -1 -8 -0 -2 -2 -2 -2 -1 0 -4 -5 2 2 0 -1 0 -1 -2 1 -1 1 -3 -2 -4 -1 1 -1 1 -4 3 -3 -0 3 1 -1 -2
-0 -2 -0 0 -5 -3 -1 -0 0 2 -2 -6 1 1 -1 -0 1 -2 -3 -2 -3 2 -1 -5 2 -1 -1 -2 -7 4 -3 2 -6 -0 1 2 1 0
-4 -2 -3 -0 -2 -5 0 0 2 -4 -3 -1 2 -1 2 0 1 -1 -2 -2 2 -1 -4 0 2 0 2 1 0 -1 -4 1 -4 -0 1 1 1 -1
-3 -2 1 -3 -3 1 2 1 -2 -2 1 1 0 -0 -0 1 -0 -3 -3 -2 -1 -4 -2 4 1 -1 -1 -3 1 -2 -2 -1 -3 1 1 2 2 0
-1 2 -4 -3 0 1 -0 -1 -1 -0 1 0 -1 -0 2 2 -2 -5 -0 -1 -4 -2 1 -1 -1 3 2 2 -3 -5 1 -1 -1 -1 -1 -0 1 0
Height
1574 1575 1576 1577 1578 1579 1579 1579 1579 1578 1578 1577 1577 1575 1573 1571 1568 1564 1560 1555 1551 1546 1540 1535 1530 1525 1520 1515 1510 1506 1500 1495 1490 1484 1478 1469 1459 1449
1571 1572 1572 1572 1573 1574 1575 1575 1575 1575 1574 1574 1573 1571 1569 1567 1564 1561 1557 1553 1547 1543 1537 1532 1527 1523 1518 1513 1509 1504 1500 1495 1489 1483 1476 1467 1457 1447
1567 1568 1568 1569 1569 1568 1568 1569 1570 1571 1570 1569 1568 1567 1565 1563 1561 1558 1554 1550 1544 1540 1535 1530 1525 1521 1516 1512 1508 1504 1499 1493 1488 1481 1474 1466 1457 1450
1562 1562 1563 1564 1564 1565 1565 1566 1566 1566 1566 1565 1563 1562 1561 1558 1556 1555 1551 1546 1541 1537 1533 1528 1523 1519 1515 1510 1506 1503 1499 1494 1488 1481 1475 1467 1459 1450
1556 1556 1557 1558 1559 1560 1561 1561 1561 1561 1561 1561 1559 1558 1556 1554 1551 1551 1548 1543 1539 1535 1530 1526 1522 1517 1512 1508 1504 1502 1499 1493 1487 1480 1473 1466 1459 1452
1550 1551 1551 1553 1554 1555 1556 1556 1556 1556 1556 1555 1555 1554 1551 1548 1546 1545 1543 1539 1536 1533 1528 1524 1520 1515 1510 1506 1501 1498 1496 1491 1486 1480 1474 1467 1461 1453
1542 1544 1546 1548 1550 1550 1551 1552 1552 1552 1551 1551 1552 1551 1549 1546 1542 1540 1537 1535 1532 1530 1526 1522 1517 1513 1509 1505 1501 1499 1496 1491 1485 1479 1473 1468 1460 1455
1534 1536 1538 1541 1542 1545 1546 1547 1548 1548 1548 1548 1548 1546 1543 1542 1540 1537 1534 1528 1526 1528 1523 1520 1516 1511 1507 1503 1499 1496 1494 1491 1484 1479 1474 1469 1462 1456
1527 1530 1531 1532 1535 1537 1539 1541 1542 1545 1546 1544 1542 1541 1539 1536 1537 1534 1531 1529 1526 1523 1520 1517 1512 1509 1505 1503 1500 1496 1494 1491 1487 1481 1476 1470 1464 1458
1519 1520 1523 1526 1526 1530 1534 1535 1536 1538 1542 1541 1538 1536 1535 1532 1532 1531 1528 1527 1524 1520 1517 1513 1510 1507 1504 1502 1500 1496 1492 1488 1484 1481 1477 1473 1467 1461
1510 1514 1516 1516 1519 1525 1527 1532 1532 1533 1535 1536 1536 1535 1532 1530 1528 1528 1526 1522 1521 1519 1516 1511 1510 1505 1503 1502 1499 1494 1491 1488 1486 1481 1477 1473 1469 1464
1495 1505 1510 1513 1516 1519 1522 1526 1529 1530 1530 1531 1531 1532 1531 1529 1527 1525 1522 1519 1516 1515 1514 1510 1507 1506 1501 1499 1498 1496 1492 1488 1484 1481 1477 1473 1470 1466
1492 1499 1504 1507 1512 1515 1517 1523 1524 1526 1527 1528 1527 1527 1528 1527 1526 1523 1520 1516 1514 1512 1510 1506 1505 1504 1502 1497 1494 1492 1489 1486 1484 1481 1477 1472 1470 1467
1488 1492 1499 1504 1509 1512 1514 1517 1519 1521 1522 1523 1523 1522 1524 1523 1524 1521 1518 1514 1511 1510 1507 1504 1503 1502 1497 1494 1492 1489 1489 1486 1484 1481 1480 1474 1471 1468
1486 1491 1495 1499 1504 1508 1508 1512 1514 1516 1518 1518 1518 1519 1519 1520 1519 1518 1515 1512 1509 1506 1503 1500 1500 1498 1494 1491 1491 1485 1483 1485 1483 1482 1480 1476 1471 1468
1482 1487 1491 1496 1500 1503 1504 1507 1510 1512 1514 1514 1516 1516 1516 1516 1515 1515 1512 1510 1508 1506 1503 1500 1497 1495 1491 1489 1488 1485 1483 1483 1481 1479 1479 1477 1472 1469
1475 1481 1485 1490 1495 1498 1501 1503 1504 1507 1509 1509 1511 1512 1513 1511 1511 1510 1508 1506 1504 1502 1499 1497 1494 1492 1490 1487 1485 1482 1481 1480 1479 1476 1476 1476 1473 1469
1471 1476 1481 1486 1491 1494 1496 1499 1502 1503 1504 1505 1506 1508 1508 1507 1506 1506 1505 1504 1501 1499 1496 1494 1494 1489 1488 1485 1483 1481 1480 1479 1478 1476 1474 1474 1472 1470
1465 1471 1477 1481 1486 1490 1492 1495 1498 1500 1500 1501 1503 1503 1503 1503 1502 1502 1501 1501 1498 1496 1494 1492 1490 1488 1485 1481 1481 1480 1478 1476 1476 1475 1473 1472 1471 1469
1461 1467 1472 1476 1480 1484 1489 1491 1492 1494 1495 1497 1498 1498 1498 1499 1499 1498 1498 1496 1495 1492 1491 1489 1488 1484 1481 1479 1477 1478 1476 1474 1474 1473 1472 1470 1469 1468
1458 1463 1467 1472 1476 1480 1483 1486 1487 1490 1492 1494 1493 1494 1493 1493 1495 1494 1494 1495 1491 1489 1488 1488 1484 1482 1478 1476 1474 1473 1473 1473 1471 1470 1470 1469 1468 1466
1452 1458 1464 1468 1473 1477 1479 1482 1484 1486 1488 1489 1490 1490 1491 1490 1489 1490 1490 1491 1489 1489 1487 1485 1481 1478 1475 1473 1472 1470 1468 1469 1469 1468 1468 1468 1467 1465
1449 1455 1459 1464 1469 1472 1475 1478 1480 1483 1484 1485 1486 1487 1486 1486 1484 1486 1487 1486 1485 1486 1484 1481 1478 1476 1473 1470 1469 1469 1468 1467 1467 1466 1466 1465 1465 1463